SL-14 R/B, 18794

Orbit data source: Space-Track

SL-14 R/B, 18794 is space debris in LEO originally from a launch on Fri, 15 Jan 1988 UTC launched from the Plesetsk Missile And Space Complex (PKMTR). Debris objects in space refer to the collection of defunct objects orbiting the Earth. Examples of debris include non-operational satellites, rocket bodies, and fragments generated from explosions, collisions, or faulty payload assembly.

Loading next visibility...
Identifier
18794, 1988-002G
Orbit
LEO
Country
Flag of CISCIS
Related business
Manufacturer
Yuzhnoe
Mission
Spacecraft
Bus & Motor
S5M, Unknown motor
Mass
1,600 kg wet, 1,600 kg dry
Launch date (UTC)
1988-01-15 (38 years ago)
Launch vehicle
Unknown
Launch site
Plesetsk Missile And Space Complex (PKMTR)
Object type
Payload
Rocket body
Debris
Shape & HBR
Cyl, 1.4 m
Radar Cross Section
7.351 m², Large (>1 m²)

Expand to show TLE details & history
Last TLE update: 11 hours ago

TLE from 11 hours ago
0 SL-14 R/B
1 18794U 88002G   26036.63228340  .00000038  00000-0  16793-3 0  9992
2 18794  82.5998 105.3489 0038417  51.5057  62.8119 12.55584656744232
Epoch: 2026-02-05T15:10Z
TLE epoch observation values (Epoch: 2026-02-05T15:10:29.285Z)
Latitude
64.35431°
Longitude
-93.67124°
Altitude
1,438.645 km
Speed
7.154 km/s
True Right ascension
17h 58m 55s
True Declination
64° 13' 54"
Sunlit
Object was in daylight at epoch
Visualization orbit readout
Latitude
Unknown
Longitude
Unknown
Altitude
Unknown
Speed
Unknown
Apparent Right ascension
Unknown
Apparent Declination
Unknown
Sunlit
N/A
Visualization observer readout
Local Sidereal Time
04:38:32
Azimuth
Unknown
Elevation
Unknown
Doppler factor
Unknown
Orbital elements
Apogee altitude
1,468.581 km
Perigee altitude
1,408.522 km
Semi-major axis
7,816.689 km
Eccentricity
0.00384
Inclination
82.5998°
RAAN
105.3489°
Arg. of periapsis
51.5057°
True anomaly
63.20434°
Mean anomaly
62.8119°
Eccentric anomaly
63.00804°
Mean motion
3.14057 °/min
Orbital period
114.63 mins
BSTAR
0.00016793
Loading maneuver chart data...
Computing Atmospheric mass density...
Loading historical data...
Loading historical data...
Loading historical data...
Loading historical data...
Loading historical data...
Loading historical data...
Loading historical data...

Documentation

Showing up to 5 results
|